Погода в Выборге

Хотите узнать прогноз погоды в Выборге? Тогда Вам сюда: Погода в Выборге

Поиск расширенной информации на нашем сайте:

Полезная информация:

Новости сайта



02.01.2020
Опубликован Долгосрочный прогноз погоды по городам России и ближнего зарубежья на январь 2020 года.
Карты: Прогноз на январь и февраль 2020 года, Сравнение прогнозируемой аномалии приземной температуры воздуха на январь 2020 года по разным моделям.




Погода в Выборге - сегодня

Время (UTC), дата Ветер
(°,м/с) 
Видим.   Явления Облачность Т
(°С)
Тd
(°С)
f(%) Тe
(°С)
Pmin
(гПа)
dP
(гПа)
Po
(мм)
O2
(г/м3)
Тmin Tmax R s Состояние
почвы
12 16.04.21 070 (В) 5-10{13}  20000 м    3/0 верхняя 
[Ci fib]
+11.5 -9.1 23 +10  1031.8  -0.5  773  300           
15 16.04.21 070 (В) 5{12}  20000 м    3/0 верхняя 
[Ci fib]
+11.6 -8.4 24 +11  1030.7  -1.1  772  299           
18 16.04.21 040 (СВ) 20000 м    ясно 
+8.9 -8.8 28 +9  1031  0.3  772  302    +11.8       
21 16.04.21 050 (СВ) 20000 м    ясно 
+6.7 -8.1 34 +6  1031.9  0.9  773  305           
00 17.04.21 060 (СВ) 10 км    ясно 
+4.5 -7.9 40 +4  1032.4  0.5  773  307           
03 17.04.21 050 (СВ) 20000 м    ясно 
+3.2 -6.9 47 +2  1032.2  -0.2  773  309  +3.2         
06 17.04.21 060 (СВ) 20000 м    ясно 
+7.7 -5.4 39 +7  1032.7  0.5  773  304  +3.1         
09 17.04.21 060 (СВ) 20000 м    ясно 
+13.3 -5.4 27 +13  1032.5  -0.2  773  298           
12 17.04.21 060 (СВ) 20000 м    ясно 
+13.9 -6.4 24 +14  1031.9  -0.6  773  297           
15 17.04.21 050 (СВ) 4{10}  20000 м    ясно 
+13.3 -7 24 +13  1031  -0.9  772  297           
18 17.04.21 050 (СВ) 20000 м    ясно 
+9.8 -5.3 34 +10  1031  772  301    +14.3       
21 17.04.21 030 (СВ) 20000 м    ясно 
+5.9 -4.6 47 +7  1031.2  0.2  772  305           
00 18.04.21 040 (СВ) 20000 м    ясно 
+5.1 -4.5 50 +4  1031.5  0.3  772  306           
03 18.04.21 020 (С) 20000 м    ясно 
+2.5 -4.6 59 +3  1031.9  0.4  773  309  +2.3         
06 18.04.21 060 (СВ) 20000 м    ясно 
+8.7 -3.7 41 +9  1031.9  773  302  +2.3         
09 18.04.21 080 (В) 20000 м    ясно 
+13.5 -3.5 31 +13  1031.6  -0.3  773  297           
12 18.04.21 070 (В) 5{10}  20000 м    ясно 
+14.5 -4.4 27 +14  1030.7  -0.9  772  296           
15 18.04.21 070 (В) 20000 м    ясно 
+13.8 -4 29 +13  1030.2  -0.5  771  296           
18 18.04.21 030 (СВ) 20000 м    ясно 
+10.3 -3.1 39 +10  1030.3  0.1  772  300    +14.9       
21 18.04.21 070 (В) 20000 м    ясно 
+7.3 -2.4 50 +7  1031.2  0.9  772  303           
00 19.04.21 040 (СВ) 20000 м    ясно 
+4.2 -1.6 66 +4  1031.3  772  307           
03 19.04.21 050 (СВ) 20000 м    3/0 верхняя 
[Ci fib]
+2.7 -1.8 72 +1  1031.2  772  308  +2.7         
06 19.04.21 060 (СВ) 20000 м    3/0 верхняя 
[Ci fib]
+6.3 -2.1 55 +5  1031.5  0.2  772  304  +2.7         
09 19.04.21 060 (СВ) 20000 м    3/0 средняя 
[Ac trans]
+11.2 -4.3 33 +10  1030.9  -0.5  772  299           
12 19.04.21 070 (В) 20000 м    1/0 средняя 
[Ac trans]
+12.5 -4.9 29 +12  1029.6  -1.3  771  298           
Время (UTC), дата Ветер
(°,м/с) 
Видим.   Явления Облачность Т
(°С)
Тd
(°С)
f(%) Тe
(°С)
Pmin
(гПа)
dP
(гПа)
Po
(мм)
O2
(г/м3)
Тmin Tmax R s Состояние
почвы

Для получения пояснительной информации подведите курсор к названию столбца.

ПОГОДА в Выборге - архив

Всё, что Вы хотите узнать о погоде в Выборге - удобно и подробно!

Выберите нужную дату (начиная с 1 января 2019* года) и нажмите кнопку "Найти".
Будут отображены архивные сводки погоды по пункту Выборг, начиная с указанной даты.


Отображать данные в формате CSV (для использования в таблицах Excel)


Внимание! Наш архив погоды предназначен исключительно для личного некоммерческого использования в познавательных целях. Если Вам необходимы официальные справки о состоянии погоды (для производственных, юридических, коммерческих и т.п. целей), обращайтесь в органы Росгидромета.

*Примечание: данная дата относится к архиву по метеостанциям СССР (Россия, СНГ, Балтия).
Архив по метеостанциям Зарубежной Европы и Азии (кроме Китая) хранится 10 дней, по другим регионам земного шара (Китай, Африка, Америка, Австралия, Океания) - 1 день.

Выборг - район местоположения метеостанции


Название, широта, долгота, высота метеостанции:
Выборг 60.7°ш. 28.7°д. 13 м над ур. моря [Российская Федерация]

Дополнительная информация

В oтличие oт бoльшинства пoгoдных сайтoв мы публикуем пoдрoбную метеoинфoрмацию в детальнoм прoфессиoнальнoм фoрмате.

Характеристики температуры и влажнoсти вoздуха измеряются на высoте 2 м в тени вдали oт зданий и деревьев.
Скoрoсть ветра измеряется на высoте 10 м (на урoвне рoста челoвека скoрoсть ветра ниже в 1.5-2 раза). Если метеoстанция нахoдится в гoрoде или в лесу, тo скoрoсть ветра занижена на 2-4 м/с пo сравнению с oткрытым местoм. Скoрoсть ветра над акватoриями крупных рек и oзёр, а также на вершинах хoлмoв на 2-5 м/с выше, чем в oбычных услoвиях.
Атмoсфернoе давление в разных тoчках местнoсти мoжет значительнo oтличаться oт давления на метеoстанции, в зависимoсти oт услoвий рельефа (при пoдъёме на 10 м давление пoнижается примернo на 1 мм рт.ст.).